RH
37 36 33 28 24 21 19 19 18 20 21 23 20 16 15 17 22 25 27 29 35 35 37 35 32 34 37 41 45 46 47 47 43 41 38 35 35 31 30 28 28 34 37 37
42 41 42 35 29 24 22 21 20 20 22 24 24 18 16 16 18 21 22 25 29 30 34 36 35 35 34 33 35 38 39 41 46 46 43 39 39 37 34 31 32 35 36 38
48 45 45 40 30 29 28 26 22 22 23 27 27 24 20 17 16 15 18 20 24 27 29 33 36 35 35 31 33 34 35 39 42 45 44 43 41 42 40 37 35 34 36 39
47 46 50 33 34 31 30 30 27 27 28 26 25 23 21 19 15 14 12 15 19 22 27 30 32 36 35 33 32 31 31 36 37 40 42 45 44 43 43 46 45 42 40 41
47 43 37 36 35 37 34 31 29 27 26 25 24 22 21 18 17 16 13 12 12 16 23 26 27 32 34 35 33 33 31 30 33 35 41 44 39 41 44 47 48 45 46 47
52 48 47 41 42 36 39 37 33 29 28 26 27 28 28 28 26 22 17 15 15 13 14 18 20 24 29 31 32 31 28 29 34 35 36 42 42 41 45 46 45 50 50 47
51 53 46 46 49 45 45 62 46 38 36 39 39 42 41 36 28 26 24 20 18 17 16 14 14 15 19 24 27 27 30 29 30 33 32 39 42 39 44 46 48 48 49 48
50 50 52 48 43 51 54 58 59 55 56 57 52 50 39 32 27 27 25 21 19 20 22 17 13 14 14 15 14 18 21 24 29 32 32 40 42 43 44 47 47 49 49 48
49 45 45 46 48 43 47 50 54 51 48 49 46 43 36 33 30 28 29 23 19 20 24 19 18 16 15 14 14 14 15 18 23 31 32 36 41 42 44 45 41 42 44 43
51 48 48 44 45 42 42 44 48 45 42 37 34 38 38 38 37 35 33 32 33 28 23 21 23 22 19 19 18 17 17 19 23 27 31 35 35 38 42 44 43 40 44 41
43 43 51 49 47 45 44 41 43 41 40 36 32 32 37 40 42 38 39 38 33 32 29 29 28 28 27 24 21 20 21 21 24 27 30 33 34 38 42 44 47 46 47 49
53 48 44 46 51 47 42 38 38 42 38 39 36 38 45 39 38 42 40 37 36 36 34 32 31 29 28 25 28 30 26 28 28 28 29 29 32 33 34 36 40 45 46 42
55 55 55 55 55 52 49 37 33 33 37 40 39 38 48 41 44 46 44 44 46 42 39 38 37 33 27 30 31 32 32 30 31 29 33 34 35 35 37 39 40 41 40 38
72 65 55 49 50 49 47 45 43 33 29 28 32 41 41 41 44 47 47 51 50 47 43 38 35 35 35 34 33 29 27 26 29 28 30 32 34 35 36 37 38 41 39 38
90 82 67 63 57 52 48 43 42 39 32 33 37 40 39 49 52 55 55 55 53 49 45 44 39 37 36 36 33 34 36 36 35 34 33 33 31 31 32 34 35 37 36 35
63 83 83 73 66 57 50 43 43 45 37 43 45 46 56 60 57 55 57 56 54 54 53 50 46 45 42 42 44 42 39 38 41 42 42 42 41 40 40 39 39 38 37 35
72 87 83 78 70 59 52 44 43 47 44 40 44 60 65 74 71 71 68 65 61 58 56 57 53 50 50 51 50 48 47 48 46 48 44 43 47 48 45 44 43 44 42 39
80 70 68 67 63 61 67 63 64 59 52 66 81 94 98 92 83 83 80 76 68 64 61 59 59 57 55 55 57 55 53 54 55 56 52 51 50 48 48 46 45 46 49 50
98 98 99 83 93 95 89 82 65 65 86 99 99 95 91 99 91 92 84 78 74 71 70 66 64 63 64 65 72 66 63 62 63 62 61 59 56 54 52 53 52 54 55 58
97 98 98 98 96 97 98 98 96 99 99 97 98 98 97 97 96 94 88 83 85 84 81 78 74 72 72 71 70 72 72 73 76 73 70 69 67 62 59 59 58 61 65 68
95 98 98 98 94 97 96 97 96 97 98 96 97 98 98 98 96 97 97 96 97 95 91 85 79 76 74 72 70 71 76 75 81 80 80 72 68 67 67 67 69 72 74 75
81 86 93 96 97 98 98 98 97 96 96 96 96 95 96 96 95 93 93 93 93 91 91 90 87 84 84 77 78 78 81 83 81 79 75 73 71 71 73 73 76 81 82 81
70 71 72 76 85 91 91 92 93 93 92 91 91 91 91 90 89 86 87 90 88 86 85 85 84 84 82 84 85 82 78 78 79 79 79 75 74 75 78 78 81 81 84 88
60 62 60 62 65 65 65 72 75 78 80 82 83 81 80 77 76 77 75 72 71 73 71 73 75 77 78 81 89 89 84 80 82 78 76 76 77 77 78 81 83 83 85 88
44 52 50 49 52 54 55 55 54 52 57 58 58 60 65 67 68 68 67 65 61 59 58 58 56 55 57 60 66 73 80 82 83 87 86 81 78 78 81 82 84 81 79 82
35 38 47 45 45 44 49 50 46 46 46 46 46 47 47 48 49 48 48 50 50 52 54 54 53 54 53 53 52 52 56 63 77 88 85 88 89 86 81 78 79 76 76 80
35 32 38 37 39 40 39 39 40 39 38 39 39 39 37 36 33 32 32 32 31 31 32 33 34 35 39 44 48 52 55 54 53 57 62 68 71 66 63 61 67 72 76 78